Regional Weather Roundup
Issued by NWS

Home | Current Version | Previous Version | Text Only | Print | Product List | Glossary Off
Versions: 1 2 3 4 5 6 7 8 9 10 11 12 13 14 15 16 17 18 19 20 21 22 23 24 25 26 27

000
ASUS45 KSLC 182110
RWRUT

UTAH REGIONAL WEATHER ROUNDUP
NATIONAL WEATHER SERVICE SALT LAKE CITY UT
300 PM MDT MON SEP 18 2017

UTZ001>011-023>025-182200-

NORTHERN UTAH

CITY           SKY/WX    TMP DP  RH WIND       PRES   REMARKS
BRIGHAM CITY   MOSUNNY   81  29  15 SW17G24   29.81F
DUGWAY         MOSUNNY   82  29  14 SW15G29   29.82F
HILL AFB       PTSUNNY   78  36  22 S21       29.84F
LOGAN          PTSUNNY  N/A N/A N/A SW15      29.82F
OGDEN          PTSUNNY   77  36  22 SW12      29.82F
SALT LAKE CITY PTSUNNY   84  35  17 S23G33    29.81F
TOOELE VALLEY  MOSUNNY   81  36  19 S16G25    29.82F
WENDOVER       MOSUNNY   83  35  18 SW17      29.77F
HEBER CITY     SUNNY     77  32  19 SW12G17   29.93F
WEST JORDAN    PTSUNNY   81  48  32 S16G36    29.86F

$$

UTZ011>015-024>027-182200-

CENTRAL/NORTHEAST UTAH

CITY           SKY/WX    TMP DP  RH WIND       PRES   REMARKS
PROVO AIRPORT  MOSUNNY   77  43  29 S7        29.89F
MOAB/CANYONLAN SUNNY     82  36  19 SW12      29.92F
DELTA          MOSUNNY   79  30  17 S20G29    29.92F
PRICE          MOSUNNY   74  36  25 S13G18    30.00F
ROOSEVELT      SUNNY     77  39  25 E8        29.97F
VERNAL         SUNNY     76  36  23 SW9G16    29.95F

$$

UTZ013>016-019>022-027-182200-

SOUTHERN UTAH

CITY           SKY/WX    TMP DP  RH WIND       PRES   REMARKS
BRYCE CANYON   SUNNY     68  27  21 SW14      30.16F
CEDAR CITY     SUNNY     76  31  19 SW20G29   30.01F
MILFORD        SUNNY     79  33  19 SW22G33   29.95F
ST GEORGE      CLEAR     85  38  18 VRB5      29.89F
HANKSVILLE     SUNNY     82  30  15 SW17      29.94F
BLANDING         N/A     76  22  13 S14G20    30.16F

$$

REGIONAL REPORTS     COLORADO/ARIZONA

CITY           SKY/WX    TMP DP  RH WIND       PRES   REMARKS
CRAIG, CO      MOSUNNY   78  24  13 W21G30    30.00F
GRAND JUNCTION SUNNY     79  39  23 NW8       29.95F
RIFLE, CO      SUNNY     79  33  19 W17       29.98F
MONTROSE, CO   SUNNY     77  38  24 MISG      30.03F
CORTEZ, CO     SUNNY     77  24  14 SW16      30.11F
PAGE, AZ       SUNNY     84  28  13 N8        29.96F
GRAND CANYON   SUNNY     73  25  16 SW20G29   30.17F
KINGMAN, AZ    MOSUNNY   86  34  15 S13G28    29.98F
FLAGSTAFF, AZ  SUNNY     70  24  17 SW20G30   30.21F

$$

REGIONAL REPORTS    NEVADA/IDAHO/WYOMING

CITY           SKY/WX    TMP DP  RH WIND       PRES   REMARKS
LAS VEGAS, NV  MOSUNNY   92  38  15 S16G23    29.83F
ELY, NY        MOSUNNY   72  33  24 S17G30    29.97F
ELKO, NV       PTSUNNY   78  22  12 SW29G40   29.82F
POCATELLO, ID  CLOUDY    72  32  23 S17G25    29.78F
BURLEY, ID     CLOUDY    69  34  27 NW14      29.77F
FORT BRIDGER,  MOCLDY    74  25  16 W23G37    30.01F
EVANSTON, WY   CLOUDY    71  29  21 SW25G37   29.98F
ROCK SPRINGS,  CLOUDY    68  24  19 SW16      29.97F
KEMMERER, WY     N/A     64  27  24 SW29G35   30.00F

$$




USA.gov is the U.S. government's official web portal to all federal, state and local government web resources and services.